Flag for United Kingdom Weather past 2 weeks in Edinburgh, Scotland, United Kingdom

Now
39 °F

Partly cloudy.


Feels Like: 36 °F
Forecast: 38 / 46 °F
Wind: 5 mph from West

Location: Edinburgh Airport

Current Time: Mar 29, 2015 at 2:53:05 AM

Latest Report: Mar 29, 2015 at 2:20 AM


Visibility: N/A

Pressure: 29.33 "Hg

Humidity: 100%

Dew point: 39 °F

Location of EdinburghLocation

Historic Weather in Edinburgh — Graph

°F

Edinburgh temperature yesterday

Maximum temperature yesterday: 55 °F (at 10:50 AM)
Minimum temperature yesterday: 39 °F (at 3:20 AM)
Average temperature yesterday: 46 °F

Past Weeks' High & Low Weather Summary

 TemperatureHumidityPressure
High55 °F (Mar 20, 12:20 PM)100% (Mar 15, 3:20 AM)30.69 "Hg (Mar 15, 3:20 AM)
Low27 °F (Mar 15, 2:50 AM)47% (Mar 23, 2:50 PM)29.27 "Hg (Mar 28, 10:50 AM)
Average42 °F79%30.14 "Hg
* Reported Mar 14 12:20 AM — Mar 29 12:20 AM, Edinburgh, Weather by CustomWeather, © 2015

Note: Actual official high and low records may vary slightly from our data, if they occured in-between our weather recording intervals... More about our weather records

Advertising

Edinburgh weather history for previous 24 hours

 ConditionsComfort  
Time TempWeatherWind HumidityBarometerVisibility
12:20 AM
Sun, Mar 29
39 °FLight rain. Overcast.2 mph93%29.30 "HgN/A
11:50 PM
Sat, Mar 28
39 °FLight rain. Mostly cloudy.2 mph93%29.30 "HgN/A
11:20 PM39 °FPartly cloudy.6 mph93%29.30 "HgN/A
10:50 PM41 °FLight rain. Partly cloudy.9 mph87%29.30 "HgN/A
10:20 PM41 °FLight rain. Partly cloudy.14 mph93%29.33 "HgN/A
9:50 PM41 °FLight rain. Passing clouds.12 mph87%29.33 "HgN/A
9:20 PM41 °FPassing clouds.14 mph87%29.36 "HgN/A
8:50 PM41 °FPassing clouds.14 mph87%29.36 "HgN/A
8:20 PM43 °FPassing clouds.15 mph81%29.36 "HgN/A
7:50 PM43 °FPassing clouds.12 mph76%29.36 "HgN/A
7:20 PM45 °FPassing clouds.17 mph76%29.39 "HgN/A
6:50 PM45 °FPassing clouds.13 mph76%29.39 "HgN/A
6:20 PM45 °FScattered clouds.21 mph76%29.39 "HgN/A
5:50 PM46 °FScattered clouds.18 mph76%29.39 "HgN/A
5:20 PM46 °FScattered clouds.18 mph76%29.39 "HgN/A
4:50 PM46 °FScattered clouds.20 mph76%29.39 "HgN/A
4:20 PM48 °FScattered clouds.16 mph71%29.36 "HgN/A
3:50 PM50 °FPartly sunny.21 mph71%29.36 "HgN/A
3:20 PM50 °FScattered clouds.23 mph71%29.33 "HgN/A
2:50 PM50 °FScattered clouds.25 mph76%29.36 "HgN/A
2:20 PM50 °FPartly sunny.29 mph71%29.33 "HgN/A
1:50 PM52 °FBroken clouds.29 mph72%29.30 "HgN/A
1:20 PM52 °FBroken clouds.32 mph72%29.30 "HgN/A
12:50 PM54 °FBroken clouds.30 mph72%29.30 "HgN/A
12:20 PM54 °FSprinkles. Broken clouds.33 mph77%29.30 "HgN/A
11:50 AM55 °FBroken clouds.35 mph77%29.27 "HgN/A
11:20 AM55 °FPartly sunny.23 mph88%29.27 "HgN/A
10:50 AM55 °FLight rain. Broken clouds.21 mph82%29.27 "HgN/A
10:20 AM54 °FLight rain. Partly sunny.20 mph88%29.30 "HgN/A
9:50 AM52 °FLight rain. Partly sunny.23 mph88%29.30 "Hg5 mi
9:20 AM52 °FScattered showers. Partly sunny.26 mph88%29.33 "HgN/A
8:50 AM50 °FLight rain. Passing clouds.23 mph88%29.33 "HgN/A
8:20 AM50 °FLight rain. Passing clouds.23 mph82%29.36 "HgN/A
7:50 AM48 °FLight rain. Passing clouds.22 mph87%29.39 "HgN/A
7:20 AM48 °FLight rain. Scattered clouds.20 mph82%29.42 "HgN/A
6:50 AM46 °FLight rain. Partly sunny.16 mph87%29.45 "HgN/A
6:20 AM43 °FLight rain. Broken clouds.5 mph87%29.47 "HgN/A
5:50 AM41 °FLight rain. Overcast.5 mph93%29.53 "HgN/A
5:20 AM43 °FLight rain. Passing clouds.3 mph81%29.56 "HgN/A
4:50 AM41 °FLight rain. Partly cloudy.6 mph87%29.59 "HgN/A
4:20 AM39 °FLight rain. Passing clouds.7 mph87%29.65 "HgN/A
3:20 AM39 °FLight rain. Overcast.6 mph87%29.74 "Hg6 mi
2:50 AM41 °FLight rain. Passing clouds.5 mph76%29.77 "HgN/A
2:20 AM43 °FClear.7 mph61%29.80 "Hg10 mi
Weather by CustomWeather, © 2015

See weather overviewHow to use our weather pages